QPF
0.02 0.08 0.04 0.01 0.00 0.00 0.00 0.00 0.00 0.01 0.01 0.01 0.01 0.01 0.02 0.02 0.02 0.01 0.02 0.02 0.04 0.05 0.05 0.05 0.06 0.06 0.05 0.05 0.05 0.06 0.07 0.07 0.07 0.05 0.05 0.06 0.05 0.05 0.07 0.09 0.12 0.09 0.07
0.01 0.02 0.03 0.02 0.01 0.00 0.00 0.01 0.00 0.00 0.00 0.01 0.01 0.01 0.01 0.01 0.01 0.01 0.02 0.02 0.03 0.03 0.03 0.04 0.04 0.04 0.05 0.03 0.03 0.06 0.07 0.06 0.05 0.04 0.05 0.04 0.04 0.04 0.05 0.06 0.06 0.06 0.06
0.00 0.01 0.01 0.01 0.01 0.01 0.00 0.00 0.00 0.00 0.01 0.01 0.01 0.01 0.01 0.02 0.02 0.01 0.01 0.02 0.02 0.02 0.03 0.02 0.02 0.03 0.03 0.02 0.03 0.04 0.05 0.05 0.05 0.03 0.03 0.04 0.04 0.04 0.05 0.03 0.04 0.04 0.04
0.00 0.00 0.00 0.00 0.00 0.00 0.00 0.00 0.00 0.00 0.01 0.01 0.01 0.01 0.01 0.02 0.02 0.02 0.01 0.02 0.02 0.01 0.01 0.02 0.02 0.02 0.02 0.02 0.02 0.03 0.04 0.04 0.04 0.03 0.04 0.05 0.06 0.07 0.07 0.04 0.05 0.06 0.04
0.01 0.00 0.00 0.00 0.00 0.01 0.00 0.00 0.01 0.01 0.01 0.01 0.02 0.03 0.03 0.03 0.03 0.03 0.03 0.03 0.03 0.02 0.02 0.02 0.02 0.02 0.02 0.02 0.02 0.03 0.04 0.04 0.03 0.03 0.04 0.05 0.07 0.09 0.08 0.06 0.06 0.05 0.03
0.01 0.00 0.00 0.00 0.01 0.01 0.01 0.01 0.02 0.02 0.02 0.01 0.02 0.04 0.04 0.04 0.04 0.04 0.05 0.05 0.03 0.02 0.02 0.02 0.02 0.02 0.03 0.02 0.02 0.03 0.03 0.02 0.03 0.03 0.04 0.05 0.06 0.05 0.04 0.05 0.05 0.03 0.02
0.01 0.01 0.00 0.00 0.00 0.00 0.00 0.01 0.02 0.02 0.02 0.02 0.03 0.04 0.03 0.02 0.03 0.03 0.03 0.03 0.03 0.03 0.02 0.03 0.03 0.02 0.02 0.02 0.02 0.02 0.02 0.02 0.03 0.03 0.02 0.03 0.03 0.03 0.03 0.05 0.04 0.03 0.02
0.03 0.02 0.02 0.02 0.02 0.02 0.01 0.01 0.01 0.02 0.02 0.02 0.03 0.04 0.03 0.02 0.02 0.02 0.03 0.03 0.03 0.03 0.03 0.03 0.03 0.03 0.03 0.03 0.03 0.04 0.03 0.03 0.02 0.02 0.02 0.02 0.03 0.03 0.02 0.02 0.03 0.03 0.03
0.06 0.08 0.06 0.04 0.04 0.03 0.02 0.02 0.02 0.03 0.03 0.03 0.03 0.03 0.03 0.02 0.02 0.02 0.02 0.02 0.02 0.03 0.03 0.03 0.03 0.04 0.06 0.06 0.06 0.06 0.05 0.04 0.03 0.02 0.04 0.04 0.03 0.02 0.02 0.03 0.04 0.04 0.04
0.15 0.21 0.19 0.10 0.05 0.04 0.03 0.02 0.02 0.03 0.02 0.02 0.02 0.02 0.02 0.02 0.02 0.01 0.01 0.01 0.01 0.02 0.03 0.03 0.03 0.03 0.07 0.08 0.06 0.05 0.06 0.06 0.05 0.05 0.04 0.03 0.02 0.02 0.02 0.02 0.03 0.04 0.04
0.20 0.28 0.35 0.25 0.10 0.05 0.03 0.02 0.02 0.01 0.02 0.02 0.02 0.02 0.02 0.02 0.03 0.02 0.02 0.02 0.02 0.02 0.03 0.03 0.03 0.04 0.05 0.07 0.07 0.05 0.03 0.04 0.04 0.04 0.04 0.04 0.03 0.02 0.02 0.02 0.03 0.04 0.04
0.12 0.13 0.26 0.29 0.13 0.07 0.04 0.03 0.02 0.02 0.02 0.02 0.01 0.02 0.01 0.02 0.02 0.02 0.02 0.02 0.02 0.03 0.04 0.04 0.04 0.04 0.04 0.04 0.04 0.03 0.03 0.03 0.03 0.04 0.05 0.05 0.04 0.03 0.03 0.03 0.02 0.03 0.02
0.04 0.07 0.10 0.13 0.09 0.07 0.07 0.06 0.06 0.06 0.05 0.04 0.03 0.03 0.03 0.03 0.03 0.04 0.03 0.03 0.03 0.03 0.03 0.04 0.04 0.05 0.05 0.04 0.04 0.04 0.04 0.04 0.04 0.03 0.04 0.04 0.05 0.04 0.03 0.02 0.02 0.02 0.02
0.04 0.06 0.09 0.13 0.12 0.13 0.13 0.10 0.07 0.07 0.07 0.05 0.05 0.05 0.05 0.07 0.07 0.08 0.08 0.07 0.05 0.03 0.02 0.03 0.04 0.05 0.07 0.06 0.06 0.06 0.06 0.06 0.05 0.04 0.03 0.04 0.04 0.03 0.03 0.03 0.03 0.04 0.03
0.03 0.04 0.08 0.09 0.14 0.19 0.19 0.14 0.09 0.06 0.06 0.07 0.08 0.07 0.07 0.07 0.08 0.12 0.15 0.15 0.12 0.06 0.03 0.04 0.06 0.08 0.09 0.08 0.08 0.09 0.08 0.07 0.06 0.05 0.04 0.03 0.03 0.04 0.04 0.04 0.03 0.04 0.04
0.04 0.05 0.05 0.06 0.07 0.11 0.16 0.16 0.12 0.08 0.08 0.08 0.10 0.10 0.08 0.09 0.11 0.17 0.19 0.16 0.11 0.08 0.05 0.04 0.06 0.06 0.07 0.06 0.07 0.06 0.05 0.04 0.04 0.04 0.03 0.02 0.03 0.03 0.04 0.05 0.04 0.04 0.05
0.02 0.03 0.03 0.03 0.04 0.06 0.10 0.17 0.16 0.14 0.12 0.11 0.14 0.14 0.10 0.10 0.12 0.13 0.12 0.10 0.09 0.07 0.07 0.08 0.08 0.07 0.06 0.06 0.04 0.04 0.04 0.03 0.03 0.03 0.02 0.02 0.03 0.03 0.05 0.06 0.07 0.07 0.06
0.04 0.03 0.02 0.03 0.03 0.03 0.03 0.06 0.10 0.11 0.11 0.13 0.12 0.11 0.11 0.11 0.10 0.09 0.09 0.11 0.12 0.12 0.11 0.09 0.08 0.07 0.06 0.05 0.04 0.04 0.04 0.03 0.03 0.02 0.02 0.03 0.03 0.03 0.06 0.07 0.06 0.06 0.05
0.06 0.05 0.03 0.02 0.03 0.03 0.03 0.04 0.06 0.06 0.06 0.09 0.15 0.18 0.15 0.14 0.12 0.09 0.10 0.11 0.10 0.09 0.09 0.08 0.08 0.08 0.06 0.07 0.06 0.05 0.05 0.04 0.03 0.02 0.02 0.03 0.02 0.04 0.05 0.05 0.04 0.03 0.02
0.05 0.06 0.04 0.02 0.02 0.03 0.03 0.02 0.03 0.05 0.08 0.10 0.14 0.19 0.16 0.11 0.09 0.08 0.08 0.07 0.07 0.08 0.08 0.08 0.08 0.08 0.08 0.10 0.11 0.09 0.06 0.04 0.03 0.03 0.02 0.02 0.02 0.04 0.03 0.02 0.02 0.02 0.02
0.03 0.03 0.03 0.02 0.02 0.02 0.02 0.02 0.02 0.03 0.04 0.05 0.08 0.10 0.10 0.09 0.13 0.15 0.12 0.08 0.07 0.06 0.06 0.07 0.09 0.13 0.12 0.12 0.11 0.10 0.08 0.05 0.04 0.03 0.03 0.03 0.04 0.04 0.03 0.03 0.02 0.02 0.03
0.04 0.03 0.02 0.02 0.02 0.02 0.02 0.02 0.03 0.04 0.05 0.07 0.10 0.13 0.12 0.11 0.14 0.19 0.17 0.11 0.09 0.06 0.04 0.04 0.04 0.05 0.06 0.05 0.04 0.05 0.05 0.04 0.04 0.03 0.03 0.02 0.03 0.02 0.02 0.01 0.01 0.02 0.02
0.03 0.02 0.02 0.02 0.03 0.02 0.02 0.02 0.03 0.04 0.06 0.07 0.11 0.13 0.12 0.14 0.15 0.14 0.16 0.13 0.09 0.07 0.05 0.03 0.04 0.04 0.04 0.03 0.02 0.01 0.02 0.02 0.01 0.01 0.01 0.01 0.01 0.01 0.01 0.02 0.02 0.02 0.02
0.04 0.06 0.04 0.03 0.04 0.04 0.03 0.04 0.05 0.04 0.05 0.06 0.09 0.12 0.13 0.12 0.15 0.19 0.14 0.11 0.09 0.07 0.06 0.05 0.05 0.05 0.04 0.03 0.02 0.01 0.01 0.02 0.01 0.01 0.01 0.01 0.01 0.01 0.01 0.01 0.01 0.01 0.01
0.01 0.05 0.08 0.04 0.03 0.04 0.05 0.05 0.05 0.05 0.06 0.06 0.07 0.08 0.08 0.09 0.11 0.12 0.12 0.10 0.10 0.10 0.10 0.10 0.09 0.06 0.03 0.03 0.03 0.02 0.02 0.01 0.01 0.01 0.01 0.01 0.01 0.01 0.01 0.01 0.00 0.01 0.01
0.02 0.02 0.04 0.04 0.03 0.04 0.05 0.06 0.06 0.06 0.07 0.08 0.08 0.09 0.10 0.12 0.16 0.15 0.15 0.16 0.15 0.15 0.16 0.14 0.10 0.07 0.05 0.04 0.04 0.04 0.04 0.03 0.02 0.02 0.01 0.01 0.01 0.01 0.01 0.01 0.01 0.01 0.01
MSLP
1013.16 1013.40 1013.61 1013.75 1013.82 1013.83 1013.83 1013.85 1013.93 1014.11 1014.38 1014.72 1015.09 1015.44 1015.74 1015.93 1016.03 1016.04 1015.99 1015.94 1015.91 1015.94 1016.05 1016.23 1016.46 1016.72 1016.97 1017.20 1017.40 1017.55 1017.67 1017.76 1017.82 1017.84 1017.81 1017.71 1017.53 1017.26 1016.90 1016.48 1016.04 1015.63 1015.29
1013.09 1013.38 1013.61 1013.74 1013.77 1013.72 1013.65 1013.63 1013.69 1013.88 1014.19 1014.60 1015.03 1015.44 1015.76 1015.95 1016.00 1015.94 1015.80 1015.66 1015.56 1015.55 1015.63 1015.82 1016.08 1016.37 1016.66 1016.92 1017.14 1017.31 1017.45 1017.56 1017.65 1017.72 1017.75 1017.72 1017.59 1017.36 1017.01 1016.58 1016.09 1015.60 1015.17
1012.89 1013.24 1013.51 1013.67 1013.70 1013.64 1013.55 1013.49 1013.55 1013.75 1014.09 1014.53 1015.01 1015.46 1015.79 1015.96 1015.98 1015.85 1015.65 1015.43 1015.27 1015.21 1015.28 1015.46 1015.72 1016.02 1016.32 1016.58 1016.79 1016.95 1017.09 1017.22 1017.35 1017.47 1017.58 1017.64 1017.60 1017.45 1017.17 1016.77 1016.28 1015.76 1015.28
1012.50 1012.91 1013.26 1013.49 1013.57 1013.54 1013.46 1013.41 1013.47 1013.67 1014.02 1014.48 1014.98 1015.43 1015.77 1015.93 1015.91 1015.75 1015.50 1015.23 1015.03 1014.94 1014.97 1015.13 1015.37 1015.65 1015.92 1016.14 1016.32 1016.45 1016.58 1016.71 1016.87 1017.06 1017.26 1017.42 1017.51 1017.48 1017.30 1016.98 1016.54 1016.04 1015.54
1011.88 1012.37 1012.82 1013.15 1013.32 1013.36 1013.33 1013.31 1013.38 1013.58 1013.93 1014.38 1014.87 1015.31 1015.64 1015.79 1015.76 1015.58 1015.31 1015.04 1014.81 1014.69 1014.70 1014.82 1015.02 1015.24 1015.45 1015.61 1015.72 1015.81 1015.90 1016.03 1016.22 1016.47 1016.76 1017.04 1017.27 1017.38 1017.33 1017.12 1016.77 1016.32 1015.84
1011.05 1011.62 1012.18 1012.63 1012.92 1013.07 1013.11 1013.13 1013.21 1013.41 1013.73 1014.15 1014.61 1015.03 1015.35 1015.50 1015.48 1015.32 1015.07 1014.80 1014.58 1014.45 1014.43 1014.50 1014.64 1014.78 1014.90 1014.98 1015.02 1015.04 1015.08 1015.20 1015.40 1015.71 1016.08 1016.48 1016.84 1017.09 1017.19 1017.11 1016.87 1016.51 1016.07
1010.08 1010.73 1011.39 1011.97 1012.39 1012.63 1012.76 1012.83 1012.92 1013.10 1013.38 1013.76 1014.18 1014.58 1014.88 1015.05 1015.06 1014.94 1014.74 1014.51 1014.31 1014.19 1014.14 1014.16 1014.22 1014.28 1014.30 1014.28 1014.23 1014.18 1014.18 1014.28 1014.50 1014.84 1015.28 1015.77 1016.24 1016.62 1016.85 1016.90 1016.78 1016.51 1016.15
1009.10 1009.80 1010.55 1011.23 1011.75 1012.09 1012.28 1012.39 1012.48 1012.64 1012.88 1013.21 1013.58 1013.95 1014.26 1014.46 1014.53 1014.47 1014.34 1014.17 1014.02 1013.90 1013.83 1013.80 1013.79 1013.75 1013.68 1013.57 1013.44 1013.33 1013.29 1013.37 1013.59 1013.95 1014.44 1014.99 1015.53 1016.00 1016.33 1016.49 1016.48 1016.31 1016.03
1008.25 1008.98 1009.78 1010.52 1011.11 1011.50 1011.73 1011.85 1011.94 1012.06 1012.25 1012.54 1012.88 1013.24 1013.56 1013.80 1013.93 1013.97 1013.92 1013.82 1013.71 1013.61 1013.53 1013.45 1013.37 1013.25 1013.10 1012.92 1012.73 1012.58 1012.51 1012.58 1012.79 1013.17 1013.66 1014.23 1014.81 1015.32 1015.71 1015.95 1016.02 1015.94 1015.75
1007.68 1008.40 1009.20 1009.95 1010.54 1010.95 1011.18 1011.28 1011.35 1011.43 1011.59 1011.84 1012.16 1012.51 1012.86 1013.15 1013.36 1013.48 1013.52 1013.49 1013.43 1013.34 1013.25 1013.13 1013.00 1012.83 1012.62 1012.40 1012.18 1012.02 1011.95 1012.01 1012.22 1012.58 1013.07 1013.62 1014.18 1014.69 1015.09 1015.36 1015.47 1015.46 1015.35
1007.50 1008.18 1008.93 1009.61 1010.16 1010.51 1010.71 1010.78 1010.81 1010.86 1010.99 1011.21 1011.53 1011.89 1012.27 1012.62 1012.90 1013.09 1013.20 1013.23 1013.20 1013.13 1013.02 1012.88 1012.71 1012.51 1012.29 1012.06 1011.86 1011.71 1011.66 1011.74 1011.95 1012.29 1012.73 1013.23 1013.73 1014.19 1014.55 1014.81 1014.94 1014.97 1014.92
1007.74 1008.34 1008.98 1009.56 1010.00 1010.27 1010.39 1010.40 1010.39 1010.42 1010.54 1010.75 1011.07 1011.46 1011.87 1012.26 1012.59 1012.83 1012.98 1013.05 1013.04 1012.96 1012.85 1012.69 1012.51 1012.31 1012.10 1011.91 1011.75 1011.66 1011.66 1011.76 1011.98 1012.29 1012.68 1013.10 1013.51 1013.87 1014.16 1014.37 1014.48 1014.53 1014.53
1008.35 1008.84 1009.35 1009.77 1010.07 1010.22 1010.25 1010.21 1010.17 1010.18 1010.29 1010.52 1010.85 1011.25 1011.68 1012.09 1012.44 1012.70 1012.87 1012.94 1012.92 1012.84 1012.71 1012.54 1012.37 1012.19 1012.03 1011.90 1011.82 1011.80 1011.87 1012.02 1012.24 1012.53 1012.85 1013.18 1013.48 1013.73 1013.92 1014.05 1014.13 1014.17 1014.19
1009.23 1009.59 1009.93 1010.18 1010.32 1010.35 1010.29 1010.20 1010.14 1010.15 1010.28 1010.51 1010.86 1011.26 1011.69 1012.10 1012.43 1012.68 1012.82 1012.86 1012.82 1012.71 1012.56 1012.40 1012.24 1012.11 1012.01 1011.97 1011.98 1012.06 1012.20 1012.40 1012.64 1012.90 1013.16 1013.39 1013.57 1013.71 1013.79 1013.83 1013.85 1013.87 1013.90
1010.22 1010.45 1010.62 1010.70 1010.69 1010.60 1010.48 1010.35 1010.29 1010.32 1010.47 1010.72 1011.07 1011.46 1011.87 1012.23 1012.52 1012.71 1012.79 1012.78 1012.69 1012.55 1012.38 1012.22 1012.09 1012.01 1011.99 1012.03 1012.15 1012.32 1012.54 1012.79 1013.04 1013.28 1013.48 1013.62 1013.71 1013.73 1013.71 1013.66 1013.62 1013.61 1013.63
1011.18 1011.28 1011.30 1011.23 1011.10 1010.93 1010.76 1010.64 1010.59 1010.65 1010.82 1011.09 1011.42 1011.79 1012.14 1012.43 1012.64 1012.74 1012.75 1012.66 1012.51 1012.33 1012.15 1011.99 1011.90 1011.87 1011.92 1012.05 1012.25 1012.50 1012.79 1013.08 1013.35 1013.57 1013.72 1013.79 1013.79 1013.72 1013.62 1013.50 1013.40 1013.35 1013.35
1011.98 1011.96 1011.86 1011.70 1011.49 1011.28 1011.10 1011.00 1010.99 1011.08 1011.27 1011.54 1011.85 1012.17 1012.44 1012.64 1012.75 1012.75 1012.67 1012.51 1012.30 1012.09 1011.89 1011.74 1011.68 1011.69 1011.81 1012.00 1012.27 1012.58 1012.92 1013.24 1013.51 1013.71 1013.83 1013.85 1013.79 1013.66 1013.49 1013.31 1013.16 1013.07 1013.05
1012.55 1012.45 1012.27 1012.05 1011.82 1011.61 1011.46 1011.40 1011.44 1011.57 1011.78 1012.04 1012.31 1012.55 1012.73 1012.83 1012.84 1012.75 1012.57 1012.35 1012.10 1011.86 1011.66 1011.53 1011.49 1011.55 1011.70 1011.94 1012.24 1012.58 1012.93 1013.26 1013.53 1013.71 1013.80 1013.79 1013.70 1013.53 1013.32 1013.11 1012.94 1012.81 1012.75
1012.88 1012.73 1012.53 1012.30 1012.09 1011.92 1011.83 1011.82 1011.91 1012.07 1012.29 1012.52 1012.74 1012.90 1013.00 1013.00 1012.91 1012.74 1012.51 1012.24 1011.97 1011.72 1011.54 1011.43 1011.41 1011.49 1011.67 1011.92 1012.23 1012.57 1012.91 1013.22 1013.47 1013.63 1013.70 1013.68 1013.57 1013.39 1013.17 1012.95 1012.76 1012.61 1012.52
1013.03 1012.87 1012.68 1012.49 1012.32 1012.21 1012.19 1012.24 1012.37 1012.55 1012.76 1012.96 1013.11 1013.21 1013.22 1013.15 1012.99 1012.77 1012.51 1012.23 1011.97 1011.75 1011.59 1011.51 1011.52 1011.61 1011.78 1012.02 1012.31 1012.61 1012.92 1013.19 1013.41 1013.55 1013.61 1013.58 1013.47 1013.30 1013.09 1012.88 1012.68 1012.51 1012.39
1013.09 1012.95 1012.80 1012.65 1012.55 1012.51 1012.54 1012.64 1012.80 1012.98 1013.17 1013.32 1013.43 1013.46 1013.41 1013.29 1013.10 1012.87 1012.61 1012.37 1012.14 1011.97 1011.85 1011.81 1011.83 1011.93 1012.08 1012.29 1012.52 1012.78 1013.02 1013.24 1013.42 1013.53 1013.57 1013.55 1013.45 1013.31 1013.12 1012.92 1012.73 1012.55 1012.41
1013.14 1013.04 1012.93 1012.84 1012.80 1012.81 1012.89 1013.01 1013.17 1013.34 1013.49 1013.59 1013.65 1013.63 1013.55 1013.42 1013.23 1013.03 1012.82 1012.63 1012.47 1012.36 1012.30 1012.29 1012.34 1012.42 1012.55 1012.71 1012.88 1013.06 1013.24 1013.39 1013.52 1013.60 1013.63 1013.61 1013.54 1013.42 1013.26 1013.09 1012.91 1012.74 1012.58
1013.25 1013.19 1013.12 1013.08 1013.07 1013.11 1013.20 1013.32 1013.45 1013.58 1013.69 1013.75 1013.76 1013.72 1013.64 1013.51 1013.37 1013.22 1013.09 1012.98 1012.90 1012.86 1012.86 1012.89 1012.95 1013.02 1013.11 1013.21 1013.32 1013.43 1013.53 1013.63 1013.70 1013.75 1013.77 1013.75 1013.70 1013.61 1013.49 1013.35 1013.19 1013.03 1012.87
1013.46 1013.42 1013.38 1013.35 1013.35 1013.39 1013.45 1013.53 1013.62 1013.69 1013.75 1013.77 1013.75 1013.70 1013.63 1013.54 1013.46 1013.39 1013.34 1013.32 1013.33 1013.37 1013.42 1013.48 1013.55 1013.61 1013.67 1013.71 1013.76 1013.80 1013.84 1013.87 1013.91 1013.93 1013.94 1013.92 1013.89 1013.83 1013.74 1013.63 1013.50 1013.36 1013.21
1013.76 1013.71 1013.67 1013.63 1013.61 1013.60 1013.61 1013.63 1013.65 1013.66 1013.65 1013.63 1013.60 1013.55 1013.51 1013.47 1013.46 1013.47 1013.51 1013.59 1013.67 1013.77 1013.87 1013.96 1014.03 1014.08 1014.10 1014.11 1014.10 1014.09 1014.08 1014.07 1014.07 1014.08 1014.08 1014.07 1014.05 1014.02 1013.96 1013.88 1013.78 1013.66 1013.53
1014.10 1014.04 1013.96 1013.88 1013.80 1013.72 1013.66 1013.59 1013.53 1013.47 1013.41 1013.36 1013.31 1013.27 1013.26 1013.28 1013.34 1013.43 1013.55 1013.69 1013.84 1013.99 1014.13 1014.23 1014.31 1014.35 1014.35 1014.33 1014.29 1014.25 1014.20 1014.17 1014.15 1014.15 1014.15 1014.15 1014.15 1014.14 1014.10 1014.05 1013.98 1013.88 1013.78
Thickness
5822 5821 5818 5814 5809 5803 5799 5796 5792 5788 5785 5780 5775 5771 5768 5769 5768 5768 5766 5765 5763 5761 5760 5758 5756 5754 5752 5750 5749 5748 5746 5744 5744 5740 5737 5740 5743 5743 5744 5745 5745 5744 5744
5819 5818 5817 5815 5810 5806 5802 5798 5795 5791 5788 5784 5780 5776 5773 5770 5770 5769 5767 5765 5764 5762 5760 5758 5756 5755 5752 5750 5749 5748 5744 5743 5743 5738 5732 5728 5732 5737 5743 5743 5742 5742 5742
5820 5818 5817 5815 5812 5808 5805 5803 5798 5795 5791 5787 5782 5778 5773 5770 5767 5766 5766 5766 5764 5763 5761 5760 5757 5755 5753 5751 5750 5748 5745 5740 5741 5741 5734 5726 5723 5729 5735 5739 5740 5740 5739
5826 5821 5819 5816 5815 5813 5810 5805 5801 5796 5793 5789 5783 5777 5771 5766 5767 5767 5766 5766 5765 5764 5762 5760 5758 5756 5754 5752 5750 5749 5747 5743 5738 5739 5739 5736 5733 5726 5725 5731 5734 5736 5735
5830 5826 5823 5821 5820 5818 5812 5808 5802 5798 5794 5790 5785 5779 5774 5771 5770 5768 5766 5765 5764 5763 5762 5760 5758 5756 5754 5752 5751 5749 5747 5744 5740 5738 5736 5734 5732 5730 5724 5722 5726 5729 5731
5832 5829 5827 5824 5820 5818 5814 5808 5803 5798 5795 5791 5787 5782 5776 5772 5769 5766 5764 5763 5763 5762 5762 5760 5758 5756 5754 5752 5751 5749 5746 5744 5742 5739 5737 5734 5730 5727 5725 5721 5721 5722 5726
5829 5826 5823 5821 5818 5815 5811 5807 5802 5797 5795 5791 5787 5783 5779 5775 5771 5768 5765 5762 5761 5760 5760 5760 5757 5756 5754 5752 5750 5748 5746 5744 5741 5739 5737 5736 5734 5732 5728 5723 5720 5719 5721
5827 5825 5823 5820 5817 5814 5810 5806 5801 5797 5795 5791 5787 5784 5781 5777 5773 5770 5767 5764 5762 5761 5761 5759 5757 5756 5754 5752 5750 5747 5745 5743 5741 5739 5737 5735 5734 5732 5730 5725 5720 5715 5715
5824 5822 5821 5818 5814 5811 5807 5805 5800 5796 5794 5791 5787 5783 5780 5777 5774 5772 5769 5766 5764 5763 5761 5759 5757 5755 5753 5751 5748 5746 5743 5742 5739 5737 5735 5733 5732 5731 5729 5726 5723 5716 5710
5819 5817 5815 5814 5812 5810 5806 5802 5800 5796 5793 5790 5787 5784 5780 5777 5775 5772 5768 5766 5765 5763 5761 5758 5756 5754 5752 5749 5747 5744 5742 5740 5737 5735 5732 5731 5729 5728 5726 5724 5722 5719 5713
5814 5813 5811 5811 5809 5808 5804 5800 5797 5794 5791 5788 5785 5782 5779 5777 5774 5770 5768 5766 5764 5762 5760 5758 5755 5752 5749 5747 5744 5742 5740 5737 5734 5732 5730 5728 5727 5724 5723 5721 5718 5716 5712
5811 5811 5810 5807 5803 5801 5799 5797 5794 5791 5789 5786 5782 5779 5777 5775 5772 5769 5767 5764 5762 5761 5759 5756 5753 5750 5748 5745 5742 5739 5737 5734 5731 5729 5727 5724 5723 5720 5719 5717 5714 5712 5710
5804 5803 5802 5800 5798 5796 5793 5792 5789 5788 5786 5782 5778 5775 5773 5771 5769 5767 5764 5761 5758 5757 5756 5754 5750 5747 5745 5742 5740 5736 5734 5731 5729 5726 5724 5721 5719 5716 5714 5712 5710 5707 5706
5797 5795 5794 5793 5792 5790 5788 5786 5784 5783 5781 5777 5774 5771 5769 5768 5765 5762 5759 5756 5754 5752 5751 5750 5747 5745 5742 5739 5737 5733 5729 5727 5725 5723 5721 5718 5716 5713 5711 5708 5705 5702 5699
5787 5788 5787 5785 5783 5782 5781 5780 5779 5778 5776 5773 5770 5768 5767 5764 5760 5758 5756 5752 5749 5748 5747 5746 5743 5740 5738 5736 5733 5729 5726 5722 5720 5718 5717 5715 5713 5712 5709 5706 5701 5698 5694
5781 5781 5780 5778 5777 5776 5775 5773 5773 5772 5771 5768 5765 5763 5761 5758 5756 5753 5750 5746 5744 5743 5743 5741 5739 5735 5734 5732 5729 5725 5721 5718 5715 5712 5711 5710 5709 5707 5705 5702 5699 5696 5691
5776 5775 5775 5774 5773 5772 5771 5768 5767 5766 5763 5761 5760 5758 5755 5752 5750 5748 5745 5742 5739 5738 5736 5735 5733 5730 5728 5726 5724 5721 5717 5714 5711 5708 5705 5704 5703 5700 5698 5695 5693 5691 5689
5769 5769 5770 5770 5770 5770 5768 5766 5763 5759 5756 5754 5753 5751 5749 5746 5744 5742 5740 5738 5735 5733 5731 5729 5727 5725 5723 5720 5718 5714 5711 5708 5706 5703 5701 5698 5696 5694 5691 5688 5685 5683 5682
5767 5766 5766 5766 5765 5764 5763 5760 5756 5752 5750 5748 5746 5746 5744 5741 5738 5736 5734 5732 5730 5728 5726 5725 5722 5719 5716 5714 5711 5707 5703 5700 5698 5697 5695 5693 5690 5688 5685 5682 5678 5676 5674
5761 5759 5759 5758 5757 5757 5757 5753 5749 5746 5744 5743 5742 5741 5739 5736 5733 5732 5731 5728 5726 5723 5722 5719 5717 5714 5711 5708 5706 5702 5699 5695 5692 5689 5688 5686 5684 5682 5679 5675 5672 5669 5667
5751 5752 5751 5748 5748 5749 5747 5744 5742 5741 5741 5740 5738 5736 5734 5732 5730 5728 5726 5722 5719 5716 5714 5712 5710 5708 5706 5703 5700 5697 5693 5690 5685 5681 5680 5679 5677 5676 5673 5670 5667 5664 5662
5741 5742 5740 5739 5739 5739 5738 5735 5734 5737 5736 5733 5731 5729 5728 5726 5725 5722 5718 5715 5711 5708 5706 5704 5701 5699 5698 5696 5693 5691 5688 5684 5679 5675 5673 5671 5669 5667 5665 5662 5660 5658 5654
5730 5730 5729 5727 5728 5728 5728 5726 5727 5728 5726 5724 5722 5721 5721 5719 5717 5714 5711 5708 5705 5701 5698 5695 5693 5690 5689 5687 5686 5683 5681 5677 5673 5669 5666 5664 5661 5658 5656 5654 5652 5649 5645
5717 5717 5716 5714 5714 5715 5716 5717 5719 5719 5718 5715 5714 5713 5712 5709 5707 5706 5703 5700 5697 5694 5690 5686 5684 5681 5680 5678 5676 5673 5670 5668 5663 5660 5658 5655 5652 5649 5647 5645 5643 5640 5637
5704 5704 5703 5702 5702 5704 5705 5707 5709 5709 5708 5706 5705 5704 5703 5700 5697 5695 5692 5691 5689 5688 5684 5680 5677 5673 5671 5670 5668 5665 5662 5659 5655 5651 5647 5643 5640 5637 5635 5633 5631 5629 5627
5692 5692 5692 5692 5692 5694 5695 5696 5697 5697 5696 5695 5695 5694 5692 5690 5686 5683 5680 5679 5678 5677 5676 5674 5670 5668 5665 5662 5660 5657 5654 5651 5647 5642 5637 5634 5632 5629 5626 5623 5621 5619 5617